Regional Weather Roundup
Issued by NWS

Home | Current Version | Previous Version | Text Only | Print | Product List | Glossary Off
Versions: 1 2 3 4 5 6 7 8 9 10 11 12 13 14 15 16 17 18 19 20 21 22 23 24 25 26 27 28 29 30 31 32 33 34 35 36 37 38 39 40 41 42 43 44 45 46 47 48 49 50

256
ASUS43 KLSX 220257
RWRMO

WEATHER SUMMARY FOR MISSOURI
NATIONAL WEATHER SERVICE SPRINGFIELD MO
900 PM CST SAT JAN 21 2017

NOTE: "FAIR" INDICATES FEW OR NO CLOUDS BELOW 12,000 FEET WITH NO
       SIGNIFICANT WEATHER AND/OR OBSTRUCTIONS TO VISIBILITY.
       CURRENT SKY AND/OR WEATHER CONDITIONS ARE NOT AVAILABLE FOR
       CHILLICOTHE AND FARMINGTON.

MOZ001>031-035>038-043-044-053-054-220400-
...NORTHERN AND WESTERN MISSOURI...

CITY           SKY/WX    TMP DP  RH WIND       PRES   REMARKS
KANSAS CTY INT CLOUDY    47  41  80 NE6       29.51F
LEE`S SUMMIT   CLOUDY    48  44  86 E7        29.52S
ST JOSEPH      CLOUDY    39  39 100 N3        29.54S
CHILLICOTHE      N/A     39  39 100 N3        29.55S

$$
MOZ066>068-077>081-088>096-101>105-220400-
...SOUTHWEST MISSOURI...

CITY           SKY/WX    TMP DP  RH WIND       PRES   REMARKS
SPRINGFIELD    LGT RAIN  53  49  86 NE5       29.47F
JOPLIN         CLOUDY    53  48  83 NE6       29.45S
BRANSON        CLOUDY    50  50 100 NE3       29.47F

$$
MOZ032>034-039>042-045>050-055>058-069>072-220400-
...CENTRAL MISSOURI...

CITY           SKY/WX    TMP DP  RH WIND       PRES   REMARKS
COLUMBIA       NOT AVBL
JEFFERSON CITY CLOUDY    49  41  74 S3        29.53R
ROLLA          CLOUDY    53  39  59 NE6       29.52S
SEDALIA        CLOUDY    51  42  71 N5        29.53S
WARRENSBURG    LGT RAIN  46  43  87 N3        29.53R

$$
MOZ051-052-059>065-220400-
...EAST CENTRAL MISSOURI...

CITY           SKY/WX    TMP DP  RH WIND       PRES   REMARKS
ST LOUIS INTL  CLOUDY    54  40  59 CALM      29.56R

$$
MOZ072>076-082>087-097>100-106>115-220400-
...SOUTH CENTRAL AND SOUTHEAST MISSOURI...

CITY           SKY/WX    TMP DP  RH WIND       PRES   REMARKS
CAPE GIRARDEAU CLOUDY    56  53  90 E5        29.55F
POPLAR BLUFF   MOCLDY    55  54  96 CALM      29.54S
WEST PLAINS    CLOUDY    58  51  78 SE3       29.53S

$$



USA.gov is the U.S. government's official web portal to all federal, state and local government web resources and services.